Hourly Data Report for September 03, 2017

All times are specified in Local Standard Time (LST). Add 1 hour to adjust for Daylight Saving Time where and when it is observed.

PETAWAWA AWOS 2
ONTARIO

45°57'00.000" N
77°19'00.000" W
130.10 m
6106396
71625
YWA

Download Data

Hourly Data (September 2017)
Hourly Data Report for September 3, 2017
Temp Definition
°C
Dew Point Temp Definition
°C
Rel Hum Definition
%
Wind Dir Definition
10's deg

Wind Spd Definition
km/h
Visibility Definition
km
Stn Press Definition
kPa
Hmdx Definition


Wind Chill Definition


Weather Definition


TIME
00:00 13.6 9.2 75 13 15 14.5 100.04     LegendNANA
01:00 13.4 8.4 72 14 11 14.5 99.97     LegendNANA
02:00 12.9 9.8 81 16 11 14.5 99.96     Moderate Rain
03:00 11.6 10.2 91 8 11 14.5 99.87     Rain
04:00 11.7 10.4 92 12 17 14.5 99.82     Rain
05:00 11.4 10.9 97 10 15 12.9 99.79     Rain
06:00 11.5 11.1 97 9 15 3.2 99.79     Moderate Rain
07:00 11.7 11.1 96 10 15 5.6 99.72     Rain
08:00 11.6 11.3 98 10 15 8.0 99.66     Rain
09:00 11.8 11.3 97 11 17 14.5 99.59     Rain
10:00
11:00 11.9 11.7 99 10 11 3.5 99.49     Drizzle
12:00 12.1 11.7 97 10 13 6.4 99.43     LegendNANA
13:00 12.2 11.8 97 10 13 6.4 99.40     Drizzle
14:00 12.3 11.8 97 12 6 9.7 99.37     Rain
15:00 13.0 12.3 96   0 8.0 99.35     Rain
16:00 13.3 12.3 94   0 14.5 99.33     Rain
17:00 13.3 12.5 95 29 6 14.5 99.35     LegendNANA
18:00 13.4 12.3 93 34 6 14.5 99.32     LegendNANA
19:00 13.0 12.3 96   0 14.5 99.32     LegendNANA
20:00 12.5 12.5 100 24 4 14.5 99.38     LegendNANA
21:00
22:00 10.6 10.6 100   0 14.5 99.30     LegendNANA
23:00 10.7 10.6 99 25 6 0.8 99.28     LegendNANA

Notes on Data Quality.

Legend

  • E = Estimated
  • M = Missing
  • NA = Not Available
  • ‡ = Partner data that is not subject to review by the National Climate Archives
Date modified: